Theta_e
314 314 314 314 314 314 314 313 312 310 308 307 308 308 309 311 313 315 315 314 312 317 319 321 321 330 338 335 336 346 351 353 351 349 348 346 347 347 346 343 344 346 342 343 338
314 314 314 314 314 314 314 314 314 314 314 312 308 308 309 309 312 314 316 315 312 318 320 320 323 330 329 328 330 347 352 349 346 345 347 347 347 346 344 346 346 345 344 342 339
313 314 314 314 314 314 315 315 316 316 315 314 312 308 308 310 314 321 321 315 313 316 317 319 323 325 330 329 332 339 350 347 347 344 344 346 347 346 344 347 345 341 343 343 343
312 312 313 314 314 314 315 315 316 317 315 314 313 309 308 313 323 321 319 317 312 315 316 323 323 328 332 334 332 342 348 347 347 346 346 346 347 346 343 345 342 341 338 343 344
311 311 311 312 312 313 314 315 316 317 318 313 312 310 310 315 318 321 320 319 312 314 316 322 327 329 331 329 338 339 349 349 346 346 346 342 346 346 345 346 343 343 343 344 345
311 311 310 311 311 312 313 315 316 319 320 318 317 316 311 320 322 322 319 317 312 315 316 320 327 328 327 345 343 349 348 349 347 347 347 346 346 343 345 346 345 345 345 345 345
311 311 310 310 311 312 314 315 317 319 322 321 319 317 316 322 323 323 322 318 314 313 315 318 325 326 324 347 347 348 350 348 348 347 347 345 346 346 346 346 345 345 345 345 345
310 310 310 310 311 312 314 316 318 320 322 322 322 318 319 323 323 320 320 321 318 317 315 317 321 322 335 345 347 349 348 351 347 347 347 344 346 344 344 347 345 346 346 346 345
309 310 310 311 311 312 316 320 321 322 322 323 322 321 322 321 320 320 320 321 312 314 316 314 316 320 341 346 346 345 350 351 351 346 345 346 350 346 344 346 345 346 346 346 346
309 310 310 311 312 314 321 321 321 323 322 322 322 320 322 322 321 319 321 320 313 313 314 315 317 323 333 338 336 347 348 349 352 347 346 348 346 346 346 347 345 346 346 347 346
309 309 311 312 313 320 322 321 321 322 321 322 321 322 322 323 321 318 319 320 314 317 320 319 325 327 326 334 335 339 346 350 347 339 342 341 347 345 345 346 345 344 346 346 346
308 309 312 313 316 321 322 321 319 321 321 322 323 322 322 322 320 320 320 321 321 321 320 324 327 324 323 324 326 338 341 349 345 341 340 342 343 346 346 346 346 346 345 346 346
308 311 313 314 318 322 321 320 319 321 321 321 323 324 322 322 321 320 322 320 321 320 321 326 325 322 324 325 327 328 334 347 343 342 342 339 348 349 346 345 345 345 345 345 345
309 312 313 315 320 321 321 320 320 322 323 323 323 324 321 320 321 320 320 320 319 321 320 323 319 322 323 325 330 331 333 343 341 341 342 342 346 346 348 347 345 344 342 345 344
309 312 314 314 319 320 320 319 321 321 323 321 322 321 320 321 320 321 319 320 319 320 320 322 320 320 321 322 327 335 341 341 341 346 344 344 345 345 347 350 346 344 343 342 344
310 312 315 315 318 319 320 318 322 322 321 320 321 321 322 320 321 319 320 319 318 320 320 320 318 320 323 335 325 340 340 339 341 346 347 345 345 347 349 349 348 344 344 341 343
311 313 315 316 317 318 319 321 323 320 318 320 318 318 321 321 322 321 321 320 321 323 323 322 321 332 337 338 339 341 338 343 344 346 346 342 347 346 343 344 345 346 345 342 342
312 313 315 316 318 318 319 322 321 320 320 317 319 322 323 322 321 321 322 322 320 320 322 324 323 335 338 337 337 338 332 335 341 345 343 344 347 340 340 340 341 343 344 342 341
314 316 318 320 320 320 323 322 320 320 317 319 320 324 326 325 324 324 324 326 324 322 327 327 326 323 330 337 338 339 338 334 339 343 345 345 342 339 338 338 341 343 343 343 341
315 317 319 321 323 322 323 321 324 322 318 319 322 322 327 327 327 327 327 324 324 323 321 324 328 325 324 330 333 337 336 340 343 341 341 346 343 337 340 341 341 341 343 342 343
316 319 321 320 323 323 325 323 323 321 320 320 321 322 323 326 326 327 327 326 325 324 323 323 325 328 324 327 335 332 336 333 335 340 341 345 343 343 346 346 342 339 342 342 343
316 322 321 322 325 316 323 321 321 321 316 319 320 321 322 326 326 325 326 326 324 324 326 323 325 328 327 323 322 323 328 330 334 333 337 343 338 342 343 343 345 344 341 340 341
312 319 322 322 325 323 318 319 319 321 318 318 319 321 323 326 328 327 327 325 325 327 326 325 325 328 328 328 328 335 338 334 324 325 334 331 332 342 342 343 342 342 341 339 343
314 321 320 320 318 322 323 324 320 317 316 317 320 321 326 327 325 328 324 324 323 326 322 322 323 326 327 327 328 335 337 337 327 328 328 329 329 345 343 343 342 340 342 341 341
314 318 320 325 324 324 322 319 319 318 317 317 319 321 326 328 327 324 322 322 323 321 324 326 326 325 327 327 326 336 336 340 340 344 332 331 336 340 343 341 339 341 342 344 343
319 325 324 324 323 323 317 320 319 318 319 319 320 322 323 327 326 326 323 323 323 324 324 325 327 330 330 332 333 335 335 338 341 341 344 344 343 341 337 337 339 339 339 343 345
310 316 321 322 324 324 327 326 326 318 316 318 319 321 323 323 323 319 319 319 321 324 325 328 327 329 328 330 334 335 334 338 339 338 340 345 341 338 338 338 337 336 337 339 345
Wind_Speed
12 13 13 14 14 14 13 12 11 10 8 7 6 6 6 6 8 8 7 5 9 9 10 13 9 8 6 2 2 5 2 5 5 6 2 1 2 5 7 16 6 3 16 20 29
10 11 11 12 13 13 13 12 11 11 10 9 7 6 5 5 6 5 4 4 9 10 11 12 10 10 3 2 1 1 2 5 5 5 2 2 2 6 8 8 6 16 17 26 28
9 9 10 11 12 12 12 13 13 11 10 10 8 6 4 4 2 3 1 9 12 11 9 9 10 5 2 1 1 2 3 7 9 16 15 6 2 2 14 4 10 29 28 25 23
10 10 10 10 10 11 11 12 13 13 11 10 8 6 4 3 3 3 2 10 13 12 9 11 10 4 2 2 1 0 7 7 12 11 15 5 5 5 11 3 20 24 31 26 22
9 10 10 9 9 9 10 12 14 14 12 11 8 6 3 4 4 5 2 10 13 12 10 10 7 2 2 1 1 2 6 5 15 15 15 11 4 5 3 12 22 22 24 22 20
9 10 10 10 9 9 10 12 13 13 11 11 9 6 2 4 7 10 9 11 12 12 9 10 7 3 3 3 2 6 12 9 10 15 11 14 3 5 2 16 22 23 22 20 19
8 9 10 10 9 8 9 12 13 12 9 11 9 6 6 3 8 8 11 8 6 9 9 9 9 4 1 4 5 7 8 9 10 13 7 14 0 8 5 16 22 21 21 19 17
7 9 10 10 9 8 11 13 13 8 7 9 10 7 5 5 4 4 5 4 4 9 9 12 8 5 2 6 4 2 2 2 4 4 5 14 9 15 12 19 24 22 20 19 18
8 9 11 10 8 9 12 15 9 3 8 5 6 5 3 2 2 2 2 5 6 10 10 10 6 3 4 4 4 3 3 5 5 7 4 6 7 17 15 22 24 23 22 21 19
8 9 10 8 7 9 13 9 5 4 10 3 6 3 4 4 4 2 7 6 6 14 9 4 2 3 2 3 3 7 5 6 8 6 6 5 2 3 15 13 22 23 21 21 21
8 9 10 7 5 8 14 7 10 4 8 4 4 1 1 5 6 7 10 9 11 2 3 1 4 5 5 2 6 7 10 10 5 2 6 5 2 10 20 11 16 22 22 22 23
9 9 9 6 4 5 9 8 10 8 6 3 0 1 3 2 6 8 10 3 2 4 3 4 3 3 4 5 3 6 7 6 4 3 3 6 7 9 11 16 13 20 25 25 20
8 8 7 4 2 3 5 12 17 11 2 3 2 2 5 7 6 6 10 5 4 3 2 6 2 7 4 7 6 5 4 8 5 7 6 0 4 5 12 15 13 12 25 27 26
8 7 5 3 1 4 2 13 16 6 2 5 1 3 4 5 4 5 5 2 2 4 3 2 3 5 5 7 7 7 6 9 10 4 3 2 3 4 9 15 18 18 20 28 28
8 6 4 3 3 3 5 14 13 3 2 7 2 3 5 2 7 3 4 1 3 5 3 1 4 5 5 6 10 1 10 9 6 5 4 2 2 1 7 12 18 26 19 28 29
8 6 4 4 5 4 6 13 5 2 3 2 2 2 3 3 2 4 2 3 2 2 1 4 1 3 1 5 9 14 13 8 4 2 2 2 1 5 7 18 19 25 26 28 29
9 6 4 4 3 4 7 6 1 2 2 4 2 2 3 3 3 1 2 2 1 0 1 2 1 1 5 11 10 6 11 2 2 2 1 4 4 10 8 11 16 27 35 27 27
8 4 4 4 5 5 4 1 3 1 3 3 3 3 3 2 3 2 3 2 2 1 0 2 4 9 8 3 6 13 7 4 4 4 3 4 5 3 5 9 17 23 40 24 25
5 2 3 4 3 3 1 1 3 3 1 4 0 2 2 2 2 1 3 2 1 2 3 1 1 2 6 5 10 7 8 2 3 2 2 4 4 3 3 14 10 14 29 30 26
4 2 4 5 5 3 1 2 2 4 1 1 1 2 2 3 2 2 2 1 1 2 2 1 3 3 3 6 6 7 10 4 3 4 4 2 4 5 9 11 7 13 24 33 30
2 2 1 8 6 1 2 2 3 4 4 1 2 2 3 2 2 2 1 2 2 2 2 1 3 0 4 2 6 6 5 3 3 2 2 2 4 2 8 12 6 10 24 28 32
1 2 3 9 2 1 2 3 2 2 3 2 2 2 2 1 2 1 2 1 3 1 2 2 1 4 2 2 2 2 2 6 7 6 1 2 2 4 5 6 2 10 21 25 27
5 3 9 4 3 3 1 2 3 2 3 4 2 0 1 3 2 2 1 0 4 1 1 2 0 3 3 4 4 1 2 2 1 1 6 5 3 3 6 5 7 5 2 10 22
2 2 2 3 3 2 3 3 3 5 3 4 3 2 3 2 0 4 3 1 3 3 4 3 1 3 6 4 4 3 1 2 3 3 4 6 6 3 2 5 8 8 8 4 11
3 1 1 3 3 2 3 0 3 5 2 4 2 4 5 4 3 4 3 1 1 3 2 1 4 3 6 8 6 5 3 2 4 2 4 1 5 2 2 5 10 10 12 5 6
3 2 3 1 1 3 3 5 5 4 7 6 4 5 5 4 7 7 5 2 2 1 1 2 1 1 5 4 5 5 4 5 2 3 4 4 6 0 2 3 6 9 12 6 2
3 2 2 1 2 3 4 4 4 2 5 5 10 6 5 4 6 2 3 4 2 2 1 0 1 2 4 2 3 7 7 6 3 3 3 5 0 3 2 3 5 7 8 7 1
Wind_Direction
38 40 41 40 39 39 38 34 29 22 5 349 334 312 301 286 272 262 266 235 200 178 182 184 173 161 132 88 88 91 76 148 145 151 255 319 117 52 118 127 117 178 151 150 156
33 32 31 31 29 27 27 28 20 16 15 5 353 334 316 300 273 272 226 203 177 172 169 177 170 156 123 104 126 146 77 157 127 130 148 196 93 114 140 123 98 117 132 150 158
27 25 24 22 19 21 23 22 20 12 4 3 0 353 339 333 113 90 160 187 176 166 176 175 164 147 137 133 150 125 48 129 139 157 178 163 192 179 153 145 175 150 147 158 162
22 18 14 10 8 12 12 12 14 14 10 2 2 1 359 83 117 55 97 181 178 181 160 152 157 143 167 148 166 342 82 111 139 148 155 108 323 129 162 215 161 158 156 161 169
16 13 8 1 359 2 1 3 4 6 8 11 13 9 61 94 54 38 113 175 179 174 159 157 142 140 105 330 302 186 87 91 154 160 167 152 63 4 168 142 157 158 161 169 174
8 5 1 356 352 354 354 356 359 1 4 9 13 15 96 94 83 68 85 149 174 169 152 155 156 127 76 50 18 98 100 92 149 160 159 143 63 66 178 149 156 166 171 175 182
0 358 354 350 351 352 349 349 352 354 5 6 14 46 104 78 108 91 87 99 136 173 169 156 136 119 44 112 123 128 111 101 83 153 133 119 215 210 181 168 165 174 178 182 190
354 352 351 351 356 348 348 347 342 345 11 11 38 79 72 127 135 91 61 70 102 168 151 167 129 88 105 127 82 109 131 114 29 165 127 174 209 236 222 195 176 181 186 191 197
349 349 352 355 352 351 350 344 338 2 19 50 38 82 83 21 295 260 100 67 114 153 155 149 158 116 138 154 129 42 82 58 105 35 121 195 131 218 216 208 186 184 191 196 200
348 348 354 357 353 3 357 354 28 40 360 47 28 101 64 63 68 112 146 91 112 127 112 123 114 152 111 191 153 123 113 66 90 15 70 49 194 212 200 226 194 191 194 202 204
348 350 352 356 7 22 17 19 13 5 0 329 308 300 103 54 72 114 142 113 127 102 136 91 199 184 157 127 110 106 112 110 111 131 73 5 286 211 211 196 221 203 200 205 209
346 347 348 2 35 35 24 42 23 322 314 330 60 248 218 109 108 130 150 133 138 112 135 155 186 166 159 147 144 128 120 109 131 152 112 39 305 207 196 196 212 215 209 213 208
339 345 346 356 39 34 10 9 355 348 270 303 316 77 106 119 121 154 162 134 126 103 130 175 116 160 167 167 190 191 212 176 139 145 95 64 320 208 200 208 237 249 219 217 213
333 340 342 330 325 339 360 351 351 353 24 11 97 118 137 121 93 139 169 148 107 138 172 170 143 172 189 205 203 216 200 169 135 137 46 349 299 235 176 203 227 253 223 219 218
324 330 326 220 272 328 328 342 347 351 78 338 49 103 144 82 136 151 163 113 124 136 213 149 184 178 203 222 201 154 143 145 136 96 135 62 290 207 189 208 219 233 238 221 219
315 314 298 246 246 283 318 334 337 247 64 6 62 55 136 36 86 120 141 70 88 118 338 264 229 241 324 48 176 135 111 92 74 56 129 134 26 264 189 216 218 225 227 223 218
308 295 260 248 232 273 313 324 274 53 332 358 359 16 116 65 92 89 153 148 249 318 352 305 148 99 146 104 135 180 179 145 161 197 272 149 151 249 218 212 207 206 218 217 214
306 273 242 251 247 269 314 149 80 338 285 6 359 70 83 25 67 71 115 109 65 7 283 335 185 176 175 226 189 188 220 184 212 185 184 179 240 311 355 217 214 214 205 206 210
300 252 234 206 206 219 173 118 160 196 292 328 239 75 107 103 123 116 51 41 359 267 320 305 229 185 206 159 161 177 218 109 114 155 220 200 227 312 263 251 202 201 195 200 209
300 221 206 187 171 174 137 167 197 220 288 28 80 355 90 36 121 119 63 28 15 43 230 137 287 173 132 165 185 231 157 178 222 203 228 224 269 266 182 256 166 198 202 205 210
287 187 238 174 166 190 193 191 232 238 206 214 140 93 58 57 56 101 108 123 4 46 94 68 283 165 186 216 194 164 187 215 258 250 248 168 238 340 282 308 239 198 196 215 213
231 168 203 164 165 7 174 197 229 240 156 156 126 109 162 118 90 112 147 259 351 303 344 37 247 274 337 354 273 305 235 226 240 201 227 319 265 330 318 334 336 170 202 210 215
340 129 156 168 201 199 232 253 254 230 191 156 140 108 89 135 145 179 212 5 14 98 56 170 94 271 181 159 157 180 98 162 184 300 215 233 254 321 15 23 46 24 294 235 218
318 181 160 198 180 186 186 230 226 206 165 122 123 133 135 135 142 177 199 195 350 70 67 169 172 274 285 357 337 229 194 113 192 213 212 221 268 211 29 13 16 9 342 291 208
347 46 152 171 183 200 206 253 185 161 169 149 132 208 174 164 183 206 213 184 138 36 75 328 277 244 279 269 251 274 271 251 208 164 240 179 266 265 301 347 348 352 347 331 189
4 7 348 272 214 188 188 201 219 177 167 187 194 166 178 177 205 206 192 224 232 101 76 38 311 268 277 283 206 243 276 272 247 193 206 263 270 161 47 1 349 354 352 342 214
352 345 342 279 194 201 199 187 232 214 201 206 174 150 195 227 179 118 122 82 64 308 139 242 200 269 279 1 220 250 225 227 277 232 260 213 265 149 120 75 11 357 359 7 71